ACA766 CYYZ-KBOS

Flight info

Callsign ACA766
Flight time N/A
Altitude 33000
Route KEPTA3 BMPAH DCT AEVON DCT HANKK DCT PONCT JFUND2
Aircraft A320/M-SDE3FGHIRWY/LB1

Departure

Time 2026-05-06 23:30
Airport Toronto Pearson International Airport (CYYZ)

Arrival

Time N/A
Airport Boston Logan International Airport (KBOS)
Time Latitude Longitude Altitude Speed Heading
2026-05-06 23:07 43.67956 -79.60732 562 ft 0 kts 226°
2026-05-06 23:20 43.67960 -79.60725 560 ft 4 kts 226°
2026-05-06 23:20 43.67979 -79.60699 565 ft 4 kts 226°
2026-05-06 23:21 43.67989 -79.60685 568 ft 3 kts 226°
2026-05-06 23:21 43.68015 -79.60669 567 ft 4 kts 156°
2026-05-06 23:21 43.68034 -79.60684 567 ft 0 kts 149°
2026-05-06 23:23 43.68034 -79.60683 561 ft 1 kts 149°
2026-05-06 23:23 43.67976 -79.60612 564 ft 17 kts 136°
2026-05-06 23:24 43.67894 -79.60503 561 ft 16 kts 136°
2026-05-06 23:24 43.67818 -79.60383 563 ft 17 kts 153°
2026-05-06 23:24 43.67707 -79.60487 564 ft 27 kts 226°
2026-05-06 23:24 43.67574 -79.60681 563 ft 29 kts 227°
2026-05-06 23:25 43.67504 -79.60782 562 ft 0 kts 229°
2026-05-06 23:25 43.67491 -79.60801 562 ft 14 kts 222°
2026-05-06 23:25 43.67386 -79.60811 563 ft 13 kts 217°
2026-05-06 23:25 43.67289 -79.60950 559 ft 31 kts 226°
2026-05-06 23:26 43.67130 -79.61182 565 ft 33 kts 226°
2026-05-06 23:26 43.66973 -79.61407 565 ft 32 kts 226°
2026-05-06 23:26 43.66805 -79.61653 565 ft 39 kts 226°
2026-05-06 23:26 43.66627 -79.61909 564 ft 19 kts 226°
2026-05-06 23:27 43.66535 -79.61903 562 ft 14 kts 136°
2026-05-06 23:27 43.66527 -79.61893 563 ft 1 kts 135°
2026-05-06 23:27 43.66540 -79.61890 567 ft 4 kts 315°
2026-05-06 23:27 43.66572 -79.61974 564 ft 11 kts 270°
2026-05-06 23:28 43.66503 -79.62107 565 ft 27 kts 249°
2026-05-06 23:28 43.66458 -79.62274 569 ft 19 kts 224°
2026-05-06 23:28 43.66327 -79.62439 563 ft 28 kts 222°
2026-05-06 23:28 43.66173 -79.62427 559 ft 25 kts 138°
2026-05-06 23:29 43.66158 -79.62262 568 ft 18 kts 46°
2026-05-06 23:29 43.66301 -79.62055 566 ft 59 kts 46°
2026-05-06 23:29 43.66749 -79.61405 565 ft 124 kts 45°
2026-05-06 23:29 43.67459 -79.60366 666 ft 164 kts 45°
2026-05-06 23:30 43.68262 -79.59218 1285 ft 168 kts 42°
2026-05-06 23:30 43.69085 -79.58074 2015 ft 172 kts 41°
2026-05-06 23:30 43.69952 -79.56843 2527 ft 188 kts 41°
2026-05-06 23:30 43.70904 -79.55439 2858 ft 211 kts 43°
2026-05-06 23:31 43.71938 -79.53871 3265 ft 232 kts 44°
2026-05-06 23:31 43.73059 -79.52168 3825 ft 249 kts 44°
2026-05-06 23:31 43.74260 -79.50351 4498 ft 264 kts 44°
2026-05-06 23:31 43.75518 -79.48449 5403 ft 272 kts 44°
2026-05-06 23:32 43.76817 -79.46498 6303 ft 279 kts 44°
2026-05-06 23:32 43.78140 -79.44486 7131 ft 287 kts 49°
2026-05-06 23:32 43.79095 -79.42009 7903 ft 300 kts 73°
2026-05-06 23:32 43.79293 -79.39119 8674 ft 308 kts 99°
2026-05-06 23:33 43.78615 -79.36358 9446 ft 310 kts 126°
2026-05-06 23:33 43.77162 -79.34202 10169 ft 308 kts 151°
2026-05-06 23:33 43.75223 -79.32780 10473 ft 326 kts 161°
2026-05-06 23:33 43.73094 -79.31433 10811 ft 345 kts 162°
2026-05-06 23:34 43.70880 -79.30047 11520 ft 351 kts 162°
2026-05-06 23:34 43.68648 -79.28640 12333 ft 354 kts 162°
2026-05-06 23:34 43.66398 -79.27209 13130 ft 358 kts 162°
2026-05-06 23:34 43.64130 -79.25760 13891 ft 361 kts 162°
2026-05-06 23:35 43.61844 -79.24296 14578 ft 364 kts 162°
2026-05-06 23:35 43.59535 -79.22817 15262 ft 367 kts 162°
2026-05-06 23:35 43.57209 -79.21328 15954 ft 370 kts 162°
2026-05-06 23:35 43.54870 -79.19830 16645 ft 372 kts 162°
2026-05-06 23:36 43.52512 -79.18320 17325 ft 375 kts 162°
2026-05-06 23:36 43.50134 -79.16799 18000 ft 377 kts 163°
2026-05-06 23:36 43.47780 -79.15158 18643 ft 386 kts 157°
2026-05-06 23:36 43.45587 -79.12907 19199 ft 400 kts 145°
2026-05-06 23:37 43.43712 -79.10066 19738 ft 415 kts 133°
2026-05-06 23:37 43.42205 -79.06595 20281 ft 429 kts 121°
2026-05-06 23:37 43.41024 -79.02787 20792 ft 435 kts 118°
2026-05-06 23:37 43.39839 -78.98942 21330 ft 439 kts 118°
2026-05-06 23:38 43.38635 -78.95062 21866 ft 443 kts 118°
2026-05-06 23:38 43.37418 -78.91155 22389 ft 446 kts 118°
2026-05-06 23:38 43.36187 -78.87216 22898 ft 450 kts 118°
2026-05-06 23:38 43.34947 -78.83255 23396 ft 454 kts 118°
2026-05-06 23:39 43.33693 -78.79258 23813 ft 457 kts 118°
2026-05-06 23:39 43.32428 -78.75233 24217 ft 461 kts 118°
2026-05-06 23:39 43.31153 -78.71179 24598 ft 464 kts 118°
2026-05-06 23:39 43.29867 -78.67091 24945 ft 468 kts 118°
2026-05-06 23:40 43.28572 -78.62971 25335 ft 471 kts 118°
2026-05-06 23:40 43.27273 -78.58831 25689 ft 474 kts 119°
2026-05-06 23:40 43.25960 -78.54667 26036 ft 478 kts 119°
2026-05-06 23:40 43.24633 -78.50471 26305 ft 483 kts 119°
2026-05-06 23:41 43.23303 -78.46280 26566 ft 488 kts 119°
2026-05-06 23:41 43.21936 -78.41989 26870 ft 492 kts 120°
2026-05-06 23:41 43.20557 -78.37668 27177 ft 496 kts 120°
2026-05-06 23:41 43.19043 -78.33432 27477 ft 494 kts 127°
2026-05-06 23:42 43.17160 -78.29522 27780 ft 489 kts 136°
2026-05-06 23:42 43.15017 -78.25908 28079 ft 490 kts 138°
2026-05-06 23:42 43.12854 -78.22305 28379 ft 493 kts 138°
2026-05-06 23:42 43.10843 -78.18443 28656 ft 510 kts 126°
2026-05-06 23:43 43.09514 -78.13856 28929 ft 528 kts 108°
2026-05-06 23:43 43.09009 -78.08826 29174 ft 537 kts 98°
2026-05-06 23:43 43.08695 -78.03713 29422 ft 541 kts 98°
2026-05-06 23:43 43.08392 -77.98567 29668 ft 545 kts 98°
2026-05-06 23:44 43.08086 -77.93389 29893 ft 548 kts 98°
2026-05-06 23:44 43.07770 -77.88179 30109 ft 551 kts 98°
2026-05-06 23:44 43.07447 -77.83007 30310 ft 554 kts 98°
2026-05-06 23:44 43.07106 -77.77673 30504 ft 557 kts 98°
2026-05-06 23:45 43.06764 -77.72388 30692 ft 559 kts 98°
2026-05-06 23:45 43.06422 -77.67149 30863 ft 562 kts 98°
2026-05-06 23:45 43.06067 -77.61749 31037 ft 564 kts 98°
2026-05-06 23:45 43.05715 -77.56392 31139 ft 567 kts 98°
2026-05-06 23:46 43.05365 -77.51086 31302 ft 570 kts 98°
2026-05-06 23:46 43.05004 -77.45667 31499 ft 571 kts 98°
2026-05-06 23:46 43.04641 -77.40255 31717 ft 572 kts 98°
2026-05-06 23:46 43.04275 -77.34841 31938 ft 573 kts 98°
2026-05-06 23:47 43.03904 -77.29408 32168 ft 574 kts 98°
2026-05-06 23:47 43.03529 -77.23966 32395 ft 575 kts 98°
2026-05-06 23:47 43.03153 -77.18532 32616 ft 575 kts 98°
2026-05-06 23:47 43.02776 -77.13092 32856 ft 575 kts 98°
2026-05-06 23:48 43.02397 -77.07664 32948 ft 572 kts 98°
2026-05-06 23:48 43.01638 -76.96908 32952 ft 567 kts 99°
2026-05-06 23:49 43.00868 -76.86202 32911 ft 566 kts 99°
2026-05-06 23:49 43.00091 -76.75491 32938 ft 567 kts 99°
2026-05-06 23:50 42.99297 -76.64776 32942 ft 567 kts 99°
2026-05-06 23:50 42.98097 -76.48700 32909 ft 567 kts 99°
2026-05-06 23:51 42.97293 -76.38066 32916 ft 567 kts 99°
2026-05-06 23:51 42.96464 -76.27358 32916 ft 567 kts 99°
2026-05-06 23:52 42.95620 -76.16656 32914 ft 567 kts 99°
2026-05-06 23:52 42.94779 -76.05958 32907 ft 567 kts 99°
2026-05-06 23:53 42.93933 -75.95267 32915 ft 567 kts 99°
2026-05-06 23:53 42.93070 -75.84554 32916 ft 567 kts 99°
2026-05-06 23:54 42.92185 -75.73869 32911 ft 567 kts 99°
2026-05-06 23:54 42.91296 -75.63228 32912 ft 567 kts 100°
2026-05-06 23:55 42.90405 -75.52540 32916 ft 567 kts 99°
2026-05-06 23:55 42.89508 -75.41857 32923 ft 567 kts 99°
2026-05-06 23:56 42.88596 -75.31198 32939 ft 564 kts 100°
2026-05-06 23:56 42.87682 -75.20658 32932 ft 562 kts 100°
2026-05-06 23:57 42.86758 -75.10076 32925 ft 561 kts 100°
2026-05-06 23:57 42.85828 -74.99526 32875 ft 560 kts 100°
2026-05-06 23:58 42.84888 -74.88977 32885 ft 560 kts 100°
2026-05-06 23:58 42.83934 -74.78432 32889 ft 561 kts 100°
2026-05-06 23:59 42.82969 -74.67887 32886 ft 561 kts 100°
2026-05-06 23:59 42.82000 -74.57346 32880 ft 561 kts 101°
2026-05-07 00:00 42.81011 -74.46800 32873 ft 561 kts 101°
2026-05-07 00:00 42.80187 -74.38048 32874 ft 561 kts 101°
2026-05-07 00:01 42.79033 -74.25822 32841 ft 560 kts 101°
2026-05-07 00:01 42.78024 -74.15302 32845 ft 560 kts 101°
2026-05-07 00:02 42.77007 -74.04794 32840 ft 560 kts 101°
2026-05-07 00:02 42.75982 -73.94296 32824 ft 559 kts 101°
2026-05-07 00:03 42.74947 -73.83810 32861 ft 559 kts 104°
2026-05-07 00:03 42.74640 -73.78529 32866 ft 561 kts 92°
2026-05-07 00:03 42.74603 -73.73226 32864 ft 561 kts 92°
2026-05-07 00:04 42.74561 -73.62596 32823 ft 561 kts 92°
2026-05-07 00:04 42.74507 -73.52046 32829 ft 561 kts 92°
2026-05-07 00:05 42.74412 -73.41435 32819 ft 561 kts 92°